| time (UTC) | temp C | wind direction | speed KPH | gust KPH | rain 1hr cm | rain 24hr cm | rain mn cm | humidity % | barometer mb |
| 20260504130459 | 15 | 254 | 0.0 | 3.2 | 0.00 | 0.00 | 0.00 | 59 | 1014.9 |
| 20260504110459 | 12 | 222 | 0.0 | 1.6 | 0.00 | 0.00 | 0.00 | 65 | 1015.6 |
| 20260504100459 | 11 | 219 | 0.0 | 1.6 | 0.00 | 0.00 | 0.00 | 70 | 1015.5 |
| 20260504081459 | 11 | 219 | 0.0 | 0.0 | 0.00 | 0.00 | 0.00 | 71 | 1015.7 |
| 20260504080459 | 11 | 219 | 0.0 | 0.0 | 0.00 | 0.00 | 0.00 | 72 | 1015.7 |
| 20260504050459 | 10 | 312 | 0.0 | 0.0 | 0.00 | 0.00 | 0.00 | 77 | 1015.9 |
| 20260504044459 | 8 | 312 | 0.0 | 0.0 | 0.00 | 0.00 | 0.00 | 77 | 1015.8 |
| 20260504043459 | 8 | 312 | 0.0 | 0.0 | 0.00 | 0.00 | 0.00 | 76 | 1016.0 |
| 20260504042459 | 8 | 312 | 0.0 | 0.0 | 0.00 | 0.00 | 0.00 | 75 | 1015.9 |
| 20260504040459 | 8 | 312 | 0.0 | 0.0 | 0.00 | 0.00 | 0.00 | 75 | 1015.8 |
| 20260504035459 | 8 | 312 | 0.0 | 0.0 | 0.00 | 0.00 | 0.00 | 74 | 1015.8 |
| 20260504034529 | 8 | 312 | 0.0 | 0.0 | 0.00 | 0.00 | 0.00 | 73 | 1015.8 |
| 20260504033459 | 8 | 312 | 0.0 | 0.0 | 0.00 | 0.00 | 0.00 | 73 | 1015.6 |
| 20260504032459 | 8 | 312 | 0.0 | 0.0 | 0.00 | 0.00 | 0.00 | 74 | 1015.5 |
| 20260504031459 | 8 | 312 | 0.0 | 0.0 | 0.00 | 0.00 | 0.00 | 72 | 1015.5 |
| 20260504030459 | 8 | 312 | 0.0 | 0.0 | 0.00 | 0.00 | 0.00 | 72 | 1015.5 |
| 20260504025459 | 8 | 312 | 0.0 | 0.0 | 0.00 | 0.00 | 0.00 | 72 | 1015.4 |
| 20260504024459 | 8 | 312 | 0.0 | 0.0 | 0.00 | 0.00 | 0.00 | 71 | 1015.5 |
| 20260504023500 | 8 | 312 | 0.0 | 0.0 | 0.00 | 0.00 | 0.00 | 70 | 1015.5 |
| 20260504022459 | 8 | 312 | 0.0 | 0.0 | 0.00 | 0.00 | 0.00 | 69 | 1015.4 |
| 20260504020500 | 9 | 312 | 0.0 | 0.0 | 0.00 | 0.00 | 0.00 | 67 | 1015.3 |
| 20260504015500 | 9 | 312 | 0.0 | 0.0 | 0.00 | 0.00 | 0.00 | 67 | 1015.3 |
| 20260504014500 | 9 | 312 | 0.0 | 0.0 | 0.00 | 0.00 | 0.00 | 65 | 1015.3 |
| 20260504013500 | 10 | 312 | 0.0 | 0.0 | 0.00 | 0.00 | 0.00 | 66 | 1015.3 |
| 20260504012500 | 10 | 312 | 0.0 | 0.0 | 0.00 | 0.00 | 0.00 | 65 | 1015.2 |
| 20260504011500 | 10 | 312 | 0.0 | 0.0 | 0.00 | 0.00 | 0.00 | 64 | 1015.1 |
| 20260504010500 | 10 | 312 | 0.0 | 0.0 | 0.00 | 0.00 | 0.00 | 63 | 1015.0 |
| 20260504005459 | 10 | 312 | 0.0 | 0.0 | 0.00 | 0.00 | 0.00 | 62 | 1015.0 |
| 20260504004500 | 11 | 312 | 0.0 | 0.0 | 0.00 | 0.00 | 0.00 | 59 | 1014.9 |
| 20260504003500 | 11 | 312 | 0.0 | 0.0 | 0.00 | 0.00 | 0.00 | 56 | 1014.8 |
| 20260504002500 | 11 | 312 | 0.0 | 0.0 | 0.00 | 0.00 | 0.00 | 54 | 1014.7 |
| 20260504001500 | 12 | 312 | 0.0 | 0.0 | 0.00 | 0.00 | 0.00 | 51 | 1014.7 |
| 20260504000500 | 12 | 312 | 0.0 | 0.0 | 0.00 | 0.00 | 0.00 | 50 | 1014.6 |
| 20260503234500 | 13 | 312 | 0.0 | 0.0 | 0.00 | 0.00 | 0.00 | 45 | 1014.4 |
| 20260503233500 | 14 | 301 | 0.0 | 0.0 | 0.00 | 0.00 | 0.00 | 42 | 1014.3 |
| 20260503232500 | 15 | 275 | 0.0 | 3.2 | 0.00 | 0.00 | 0.00 | 37 | 1014.3 |
| 20260503231500 | 15 | 206 | 0.0 | 1.6 | 0.00 | 0.00 | 0.00 | 37 | 1014.3 |
| 20260503224445 | 16 | 286 | 0.0 | 4.8 | 0.00 | 0.00 | 0.00 | 35 | 1014.3 |
| 20260503223445 | 16 | 284 | 0.0 | 3.2 | 0.00 | 0.00 | 0.00 | 36 | 1014.4 |
| 20260503222445 | 16 | 262 | 3.2 | 4.8 | 0.00 | 0.00 | 0.00 | 35 | 1014.3 |
| 20260503221445 | 16 | 238 | 4.8 | 6.4 | 0.00 | 0.00 | 0.00 | 34 | 1014.4 |
| 20260503220351 | 16 | 215 | 4.8 | 4.8 | 0.00 | 0.00 | 0.00 | 34 | 1014.4 |
| 20260503215351 | 16 | 267 | 3.2 | 14.5 | 0.00 | 0.00 | 0.00 | 37 | 1014.4 |
| 20260503214351 | 16 | 250 | 3.2 | 4.8 | 0.00 | 0.00 | 0.00 | 35 | 1014.4 |
| 20260503213351 | 16 | 306 | 3.2 | 4.8 | 0.00 | 0.00 | 0.00 | 35 | 1014.4 |
| 20260503212351 | 16 | 211 | 0.0 | 11.3 | 0.00 | 0.00 | 0.00 | 34 | 1014.4 |
| 20260503211351 | 16 | 309 | 4.8 | 11.3 | 0.00 | 0.00 | 0.00 | 34 | 1014.2 |
| 20260503210351 | 16 | 302 | 1.6 | 4.8 | 0.00 | 0.00 | 0.00 | 36 | 1014.2 |
| 20260503204351 | 16 | 281 | 4.8 | 4.8 | 0.00 | 0.00 | 0.00 | 36 | 1014.1 |
| 20260503203351 | 16 | 290 | 1.6 | 6.4 | 0.00 | 0.00 | 0.00 | 34 | 1014.3 |
| 20260503202351 | 17 | 228 | 3.2 | 11.3 | 0.00 | 0.00 | 0.00 | 34 | 1014.4 |
| 20260503200351 | 16 | 277 | 0.0 | 3.2 | 0.00 | 0.00 | 0.00 | 37 | 1014.7 |
| 20260503195351 | 16 | 340 | 3.2 | 11.3 | 0.00 | 0.00 | 0.00 | 38 | 1015.0 |
| 20260503194421 | 16 | 285 | 0.0 | 9.7 | 0.00 | 0.00 | 0.00 | 34 | 1015.0 |
| 20260503193351 | 16 | 294 | 9.7 | 9.7 | 0.00 | 0.00 | 0.00 | 34 | 1015.1 |
| 20260503192351 | 16 | 207 | 3.2 | 4.8 | 0.00 | 0.00 | 0.00 | 38 | 1015.2 |
| 20260503191351 | 16 | 217 | 3.2 | 4.8 | 0.00 | 0.00 | 0.00 | 37 | 1015.3 |
| 20260503190351 | 15 | 181 | 9.7 | 9.7 | 0.00 | 0.00 | 0.00 | 34 | 1015.4 |
| 20260503184351 | 15 | 197 | 4.8 | 12.9 | 0.00 | 0.00 | 0.00 | 38 | 1015.7 |
| 20260503183351 | 16 | 300 | 4.8 | 14.5 | 0.00 | 0.00 | 0.00 | 39 | 1015.7 |
| 20260503182351 | 16 | 297 | 1.6 | 14.5 | 0.00 | 0.00 | 0.00 | 37 | 1015.6 |
| 20260503181351 | 15 | 35 | 6.4 | 9.7 | 0.00 | 0.00 | 0.00 | 38 | 1015.6 |
| 20260503180351 | 15 | 296 | 1.6 | 6.4 | 0.00 | 0.00 | 0.00 | 39 | 1015.8 |
| 20260503175351 | 15 | 339 | 9.7 | 14.5 | 0.00 | 0.00 | 0.00 | 38 | 1015.9 |
| 20260503174351 | 15 | 261 | 4.8 | 8.0 | 0.00 | 0.00 | 0.00 | 37 | 1015.8 |
| 20260503173351 | 14 | 306 | 3.2 | 9.7 | 0.00 | 0.00 | 0.00 | 40 | 1015.9 |
| 20260503172351 | 14 | 233 | 0.0 | 4.8 | 0.00 | 0.00 | 0.00 | 38 | 1016.1 |
| 20260503171351 | 14 | 316 | 3.2 | 4.8 | 0.00 | 0.00 | 0.00 | 42 | 1016.2 |
| 20260503170421 | 14 | 30 | 1.6 | 6.4 | 0.00 | 0.00 | 0.00 | 38 | 1016.3 |
| 20260503150421 | 11 | 321 | 8.0 | 11.3 | 0.00 | 0.00 | 0.00 | 44 | 1016.7 |